Location: Mahannah Oil Field
(37.4664°N, 96.6003°W)
Time: 15:42:46
(UTC+00:00)

Vanguard 2 Rocket - Pass Details

Date: 30 January 2021
Orbit: 554 x 3325 km, 32.9° (Epoch: 06 March)

Event Time Altitude Azimuth Distance (km) Brightness Sun altitude
Rises 01:52:24 0° 278° (W) 5,070 12.0 -24.9°
Reaches altitude 10° 01:57:15 10° 265° (W) 3,527 10.9 -25.8°
Maximum altitude 02:03:06 21° 220° (SW) 2,160 9.2 -27.0°
Enters shadow 02:07:10 11° 173° (S) 2,383 9.0 -27.8°
Drops below altitude 10° 02:07:17 10° 172° (S) 2,409 - -27.8°
Sets 02:09:53 0° 155° (SSE) 3,092 - -28.3°
